Погода в Василевичи

Погода в Василевичи : погода сейчас, прогноз погоды и архив. Всё, что Вы хотите узнать о погоде в Василевичи!

Хотите узнать прогноз погоды в Василевичи? Тогда Вам сюда: Погода в Василевичи

Поиск расширенной информации на нашем сайте:

Другие новости

Новости СМИ2

Главная страница сайта

Новости сайта

03.07.2017

Напоминаем, что на нашем специализированном сайте Метеоцентр.Азия вы можете получить высокодетализированные автоматические прогнозы погоды по пунктам России, СНГ и мира в авиационном формате (включающие направление и скорость ветра, видимость, явления погоды, количество и форму облачности, нижнюю и верхнюю границу облачности).


Погода в Василевичи - сегодня

Время (UTC), дата Ветер
(°,м/с) 
Видим.   Явления Облачность Т
(°С)
Тd
(°С)
f(%) Тe
(°С)
Pmin
(гПа)
dP
(гПа)
Po
(мм)
O2
(г/м3)
Тmin Tmax R s Состояние
почвы
18 10.08.18 тихо ()   10 км    ясно 
+18.5 +11.6 64 +22  1025.4  -0.6  756  283    +27.2       
21 10.08.18 160 (Ю) 10 км    ясно 
+16.7 +10.9 69 +20  1026  0.5  757  285           
00 11.08.18 170 (Ю) 10 км    ясно 
+13.7 +10.5 81 +17  1026.4  0.1  757  288           
06 11.08.18 200 (Ю) 10 км    3/0 верхняя 
[Ci fib]
+20.2 +12.2 60 +24  1024.9  -0.3  756  281  +12.2         
09 11.08.18 180 (Ю) 20000 м    4/0 верхняя 
[Ci fib]
+25.3 +12.3 44 +29  1023.7  -0.8  756  276           
12 11.08.18 200 (Ю) 20000 м    1/0 верхняя 
[Ci fib]
+27.4 +10.8 35 +30  1021.7  -1.9  754  274           
15 11.08.18 200 (Ю) 20000 м    ясно 
+27.2 +9.3 32 +27  1019.7  -2  753  274           
18 11.08.18 180 (Ю) 10 км    ясно 
+20.3 +12.3 60 +25  1019.2  -0.9  752  280    +28.5       
21 11.08.18 тихо ()   10 км    ясно 
+15.3 +11.9 80 +19  1018.7  -0.8  751  284           
00 12.08.18 180 (Ю) 10 км    ясно 
+16.4 +11.8 74 +21  1017.6  -1  751  283           
09 12.08.18 270 (З) 10 км    8/3 600 м средняя, верхняя 
[Cu hum|Ac trans|Ci fib]
+21.9 +16.4 71 +33  1018.1  751  277           
12 12.08.18 280 (З) 10 км    8/8 600 м 
[Cu hum]
+24.4 +12.4 47 +29  1017.2  -0.7  751  275           
15 12.08.18 270 (З) 3{10}  10 км    8/3 600 м верхняя 
[Cu hum|Ci fib]
+24.3 +7.7 35 +24  1016.5  -0.7  750  276           
18 12.08.18 тихо ()   10 км    8/0 верхняя 
[Ci fib]
+17.3 +8.9 58 +17  1017.2  0.2  750  283    +26.3       
21 12.08.18 тихо ()   10 км    ясно 
+13.3 +8.6 73 +13  1017.5  0.1  750  287           
00 13.08.18 220 (ЮЗ) 10 км    ясно 
+11.7 +8.5 81 +13  1017.5  -0.1  750  288           
03 13.08.18 тихо ()   4000 м  дымка  8/0 верхняя 
[Ci fib]
+8.8 +8 95 +9  1017.7  750  291           
06 13.08.18 тихо ()   10 км    9/0 верхняя 
[Ci fib]
+17 +10.4 65 +19  1017.2  750  283  +8.5         
09 13.08.18 230 (ЮЗ) 20000 м    8/0 верхняя 
[Ci fib]
+23.7 +9.8 41 +25  1016.2  -0.5  750  276           
12 13.08.18 250 (З) 20000 м    9/5 1000 м верхняя 
[Cu hum|Ci fib]
+25.5 +9.2 36 +26  1014.8  -1.3  749  274           
15 13.08.18 240 (ЮЗ) 20000 м    9/3 600 м верхняя 
[Cu hum|Ci fib]
+26 +12.6 43 +31  1013  -1.7  748  273           
18 13.08.18 тихо ()   10 км    9/0 средняя, верхняя 
[Ac trans|Ci fib]
+19.1 +13.5 70 +25  1012.6  -0.9  747  279    +27.1       
00 14.08.18 170 (Ю) 4000 м  дымка{ливн. осадки}  ясно 
+16.1 +14.9 93 +26  1012.5  -0.8  747  281         
03 14.08.18 тихо ()   4000 м  дымка  3/0 верхняя 
[Ci fib]
+13.4 +12.9 97 +19  1013  0.4  747  284         
06 14.08.18 тихо ()   10 км    8/0 верхняя 
[Ci fib]
+20.1 +16.4 79 +31  1013.2  0.6  748  277  +13.4       
Время (UTC), дата Ветер
(°,м/с) 
Видим.   Явления Облачность Т
(°С)
Тd
(°С)
f(%) Тe
(°С)
Pmin
(гПа)
dP
(гПа)
Po
(мм)
O2
(г/м3)
Тmin Tmax R s Состояние
почвы

Для получения пояснительной информации подведите курсор к названию столбца.

ПОГОДА в Василевичи - архив

Всё, что Вы хотите узнать о погоде в Василевичи - удобно и подробно!

Выберите нужную дату (начиная с 1 января 2015* года) и нажмите кнопку "Найти".
Будут отображены архивные сводки погоды по пункту Василевичи, начиная с указанной даты.


Отображать данные в формате CSV (для использования в таблицах Excel)


Внимание! Наш архив погоды предназначен исключительно для личного некоммерческого использования в познавательных целях. Если Вам необходимы официальные справки о состоянии погоды (для производственных, юридических, коммерческих и т.п. целей), обращайтесь в органы Росгидромета.

*Примечание: данная дата относится к архиву по метеостанциям СССР (Россия, СНГ, Балтия).
Архив по метеостанциям Зарубежной Европы и Азии (кроме Китая) хранится 10 дней, по другим регионам земного шара (Китай, Африка, Америка, Австралия, Океания) - 1 день.

Василевичи - район местоположения метеостанции


Название, широта, долгота, высота метеостанции:
Василевичи 52.2°ш. 29.8°д. 142 м над ур. моря [Беларусь]

Дополнительная информация

В oтличие oт бoльшинства пoгoдных сайтoв мы публикуем пoдрoбную метеoинфoрмацию в детальнoм прoфессиoнальнoм фoрмате.

Характеристики температуры и влажнoсти вoздуха измеряются на высoте 2 м в тени вдали oт зданий и деревьев.
Скoрoсть ветра измеряется на высoте 10 м (на урoвне рoста челoвека скoрoсть ветра ниже в 1.5-2 раза). Если метеoстанция нахoдится в гoрoде или в лесу, тo скoрoсть ветра занижена на 2-4 м/с пo сравнению с oткрытым местoм. Скoрoсть ветра над акватoриями крупных рек и oзёр, а также на вершинах хoлмoв на 2-5 м/с выше, чем в oбычных услoвиях.
Атмoсфернoе давление в разных тoчках местнoсти мoжет значительнo oтличаться oт давления на метеoстанции, в зависимoсти oт услoвий рельефа (при пoдъёме на 10 м давление пoнижается примернo на 1 мм рт.ст.).